Wichita Falls, TX

9:17 AM CDT on June 27, 2017 (GMT -0500)
Sheppard Air Force Base-Wichita Falls Municipal

Weather History for KSPS - March, 2014

Change the Weather History Date:

Wednesday, March 12, 2014

  Actual Average Record
Temperature  
Mean Temperature 49 °F 53 °F  
Max Temperature 60 °F 66 °F 95 °F (1989)
Min Temperature 37 °F 40 °F 10 °F (1948)
Degree Days  
Heating Degree Days 16 12  
Month to date heating degree days 250 168  
Since 1 July heating degree days 3020 2614  
Cooling Degree Days 0 0  
Month to date cooling degree days 4 0  
Year to date cooling degree days 4 3  
Moisture  
Dew Point 23 °F    
Average Humidity 41    
Maximum Humidity 64    
Minimum Humidity 17    
Precipitation  
Precipitation 0.00 in 0.07 in 3.12 in (1999)
Month to date precipitation 0.09 0.93  
Year to date precipitation 0.44 3.82  
Snow  
Snow 0.00 in 0.00 in - ()
Month to date snowfall T 0.3  
Since 1 July snowfall 5.0 3.7  
Snow Depth 0.00 in    
Sea Level Pressure  
Sea Level Pressure 30.23 in    
Wind  
Wind Speed 17 mph (NNW)    
Max Wind Speed 36 mph    
Max Gust Speed 48 mph    
Visibility 10 miles    
Events      
T = Trace of Precipitation, MM = Missing Value Source: NWS Daily Summary

Daily Weather History Graph

Daily Weather History Graph

Search for Another Location

Airport or City:

Trip Planner

Search our weather history database for the weather conditions in past years. The results will help you decide how hot, cold, wet, or windy it might be!

Date:

Astronomy

Mar. 12, 2014 Rise Set
Actual Time 7:48 AM CDT 7:39 PM CDT
Civil Twilight 7:23 AM CDT 8:04 PM CDT
Nautical Twilight 6:54 AM CDT 8:33 PM CDT
Astronomical Twilight 6:25 AM CDT 9:02 PM CDT
Moon 4:18 PM CDT (3/12) 5:12 AM CDT (3/12)
Length of Visible Light 12h 40m
Length of Day
11h 51m
Waxing Gibbous, 85% of the Moon is Illuminated
Mar 12
Waxing Gibbous
Mar 16
Full
Mar 23
Last Quarter
Mar 30
New
Apr 7
First Quarter

Hourly Weather History & Observations

Time (CDT) Temp. Windchill Dew Point Humidity Pressure Visibility Wind Dir Wind Speed Gust Speed Precip Events Conditions
12:52 AM 48.9 °F - 33.1 °F 54% 29.98 in 10.0 mi North 35.7 mph 43.7 mph N/A   Clear
1:52 AM 46.0 °F 36.1 °F 32.0 °F 58% 30.05 in 10.0 mi North 34.5 mph 43.7 mph N/A   Scattered Clouds
2:52 AM 45.0 °F 35.8 °F 30.9 °F 58% 30.09 in 10.0 mi North 26.5 mph 38.0 mph N/A   Scattered Clouds
3:52 AM 42.1 °F 31.5 °F 30.0 °F 62% 30.11 in 10.0 mi North 28.8 mph 38.0 mph N/A   Partly Cloudy
4:52 AM 41.0 °F 30.0 °F 28.9 °F 62% 30.13 in 10.0 mi North 28.8 mph 36.8 mph N/A   Scattered Clouds
5:52 AM 39.9 °F 30.2 °F 27.0 °F 60% 30.16 in 10.0 mi North 20.7 mph 28.8 mph N/A   Scattered Clouds
6:52 AM 39.0 °F 30.6 °F 27.0 °F 62% 30.21 in 10.0 mi North 15.0 mph - N/A   Scattered Clouds
7:52 AM 37.9 °F 28.9 °F 27.0 °F 65% 30.25 in 10.0 mi North 16.1 mph - N/A   Clear
8:52 AM 41.0 °F 33.1 °F 28.0 °F 60% 30.30 in 10.0 mi NNW 15.0 mph - N/A   Clear
9:52 AM 45.0 °F 37.4 °F 28.0 °F 52% 30.33 in 10.0 mi NNW 18.4 mph - N/A   Clear
10:52 AM 50.0 °F - 28.0 °F 43% 30.35 in 10.0 mi North 20.7 mph - N/A   Clear
11:52 AM 52.0 °F - 27.0 °F 38% 30.35 in 10.0 mi North 23.0 mph 29.9 mph N/A   Partly Cloudy
12:52 PM 54.0 °F - 25.0 °F 33% 30.35 in 10.0 mi NNE 16.1 mph 27.6 mph N/A   Clear
1:52 PM 57.0 °F - 21.9 °F 26% 30.32 in 10.0 mi North 17.3 mph 23.0 mph N/A   Clear
2:52 PM 57.0 °F - 19.0 °F 23% 30.30 in 10.0 mi NNE 8.1 mph 23.0 mph N/A   Clear
3:52 PM 59.0 °F - 17.1 °F 20% 30.27 in 10.0 mi NNW 13.8 mph 24.2 mph N/A   Clear
4:52 PM 59.0 °F - 16.0 °F 19% 30.26 in 10.0 mi North 15.0 mph 21.9 mph N/A   Clear
5:52 PM 59.0 °F - 15.1 °F 18% 30.25 in 10.0 mi NW 13.8 mph - N/A   Clear
6:52 PM 57.0 °F - 14.0 °F 18% 30.25 in 10.0 mi NNW 11.5 mph - N/A   Clear
7:52 PM 51.1 °F - 15.1 °F 24% 30.26 in 10.0 mi NNW 5.8 mph - N/A   Clear
8:52 PM 50.0 °F - 16.0 °F 26% 30.27 in 10.0 mi WNW 6.9 mph - N/A   Clear
9:52 PM 50.0 °F - 15.1 °F 25% 30.27 in 10.0 mi WNW 6.9 mph - N/A   Clear
10:52 PM 48.0 °F - 16.0 °F 28% 30.27 in 10.0 mi West 3.5 mph - N/A   Clear
11:52 PM 37.9 °F 35.5 °F 18.0 °F 45% 30.28 in 10.0 mi WSW 3.5 mph - N/A   Clear